Regional Weather Roundup
Issued by NWS State College, PA

Home | Current Version | Previous Version | Text Only | Print | Product List | Glossary Off
Versions: 1 2 3 4 5 6 7 8 9 10 11 12 13 14 15 16 17 18 19 20 21 22 23 24 25 26 27 28 29 30 31 32 33 34 35 36 37 38 39 40 41 42 43 44 45 46 47 48 49 50

527
ASUS41 KCTP 240310
RWRCTP

REGIONAL WEATHER ROUNDUP
NATIONAL WEATHER SERVICE STATE COLLEGE PA
1100 PM EDT MON APR 23 2018

Note: "fair" indicates few or no clouds below 12,000 feet with no
significant weather and/or obstructions to visibility.

* = STATION THAT DOES NOT REPORT PRECIPITATION /E.G. RAIN...SNOW...ETC/
    THUNDER OR FOG.

PAZ002>004-007>009-013>016-020>023-029>032-240400-
WESTERN PENNSYLVANIA

CITY           SKY/WX    TMP DP  RH WIND       PRES   REMARKS
ERIE           FAIR      64  37  36 SE12      30.18F
MEADVILLE      FAIR      60  39  45 VRB6      30.21S
FRANKLIN*      FAIR      58  39  49 SE9       30.23F
NEW CASTLE     MOCLDY    63  40  42 SE6       30.21F
BEAVER COUNTY  NOT AVBL
BUTLER*        FAIR      60  41  49 SE8       30.23F
PITTSBURGH INT LGT RAIN  62  41  46 SE12      30.21S
PITTSBURGH     CLOUDY    60  43  53 SE12G22   30.22F
INDIANA*       PTCLDY    59  43  55 SE8       30.30F
LATROBE        FAIR      59  41  51 E8        30.26F
WASHINGTON CO* LGT RAIN  58  45  62 SE8       30.24F
$$

PAZ004>006-010>012-017>019-024>028-033>037-041-042-045-046-049>053-240400-
CENTRAL PENNSYLVANIA

CITY           SKY/WX    TMP DP  RH WIND       PRES   REMARKS
BRADFORD       FAIR      56  35  45 S7        30.27F
DUBOIS         FAIR      56  39  53 SE12      30.26F
CLEARFIELD     FAIR      57  40  52 SE6       30.29F
JOHNSTOWN      FAIR      53  40  61 SE10      30.27F
ALTOONA        FAIR      57  41  55 SE8       30.31S
STATE COLLEGE  FAIR      58  39  49 SE6       30.31F
WILLIAMSPORT   FAIR      57  31  37 SE3       30.33F
SELINSGROVE    FAIR      57  35  43 S7        30.35F
FT INDIANTOWN  FAIR      53  36  52 CALM      30.37F
CAPITAL CITY   FAIR      60  39  45 SE10      30.36F
HARRISBURG     MOCLDY    58  35  42 S10       30.36F
YORK           FAIR      56  31  38 SE10      30.37S
$$

PAZ038>040-043-044-047-048-054-055-060>062-067>071-240400-
EASTERN PENNSYLVANIA

CITY           SKY/WX    TMP DP  RH WIND       PRES   REMARKS
SCRANTON       FAIR      55  31  39 SE7       30.36S
MOUNT POCONO   FAIR      47  30  51 SE8       30.38F
ALLENTOWN      FAIR      57  23  26 S8        30.39F
QUAKERTOWN*    CLEAR     52  27  37 CALM      30.41S
READING        FAIR      55  29  36 S8        30.38F
LANCASTER      FAIR      49  36  61 SE7       30.38F
COATESVILLE    FAIR      50  32  50 CALM      30.41F
POTTSTOWN      FAIR      51  23  33 S3        30.42F
BLUE BELL      FAIR      52  23  32 S5        30.43S
DOYLESTOWN     FAIR      52  23  32 SE5       30.40F
WILLOW GROVE   NOT AVBL
NORTH PHILA    FAIR      56  25  30 CALM      30.44F
PHILADELPHIA   MOCLDY    52  27  38 SE5       30.42F
$$




USA.gov is the U.S. government's official web portal to all federal, state and local government web resources and services.